Dewpoint
1 3 4 2 1 0 -1 -1 -1 -3 -5 -4 -4 -4 -5 -6 -7 -7 -8 -6 -5 3 7 7 6 6 5 5 5 5 4 5 5 3 2 0 -1 -2 -3 -5 -7 -8 -9 -9
2 4 2 1 0 -3 -3 -2 -2 -3 -5 -6 -6 -6 -8 -9 -9 -10 -9 -8 -6 4 6 6 6 5 4 4 4 4 4 4 3 1 1 0 -0 -1 -3 -5 -7 -8 -9 -10
2 2 0 1 -2 -1 -1 -2 -2 -2 -6 -7 -6 -6 -8 -9 -10 -10 -11 -10 -9 5 6 6 5 5 4 4 4 4 4 3 2 3 3 2 1 0 -1 -4 -6 -8 -10 -11
-0 -2 -2 -2 -1 -2 -3 -5 -6 -6 -5 -3 -7 -3 -7 -8 -9 -9 -3 -7 -8 5 6 5 4 4 3 3 3 4 4 3 4 4 3 3 2 -1 -1 -3 -4 -8 -10 -12
-1 -4 -2 -1 -3 -5 -4 -7 -7 -7 -5 -4 -5 -4 -6 -7 -6 -2 -2 1 3 5 5 4 4 4 3 3 3 4 4 3 4 3 2 2 0 0 -1 -2 -4 -7 -10 -13
-5 -8 -8 -8 -7 -8 -7 -7 -6 -6 -5 -2 -5 -3 -4 -6 -4 -1 -2 -1 4 5 5 4 4 3 3 3 3 3 4 4 3 2 1 1 2 0 -1 -1 -4 -7 -9 -13
-6 -8 -9 -9 -7 -7 -7 -4 -0 2 1 0 -5 -4 -4 -4 -3 -2 -1 -3 2 4 4 4 4 3 3 3 3 3 4 3 3 2 2 2 1 1 -0 -3 -5 -6 -9 -11
-5 -2 -6 -6 -6 -5 -5 -5 0 2 1 -1 -5 -3 -5 -2 -2 -1 -2 -2 -2 4 4 4 3 3 3 3 3 3 3 3 2 2 2 2 1 0 -2 -3 -4 -5 -8 -9
-2 -3 -7 -8 -9 -7 -4 -3 -5 -2 -3 -0 -3 -5 -7 -2 -1 1 0 -1 -2 -2 2 3 3 3 3 3 3 3 2 2 1 2 2 2 1 -0 -2 -4 -4 -6 -8 -10
-5 -2 -6 -7 -8 -8 -7 -7 -3 -2 1 -0 -2 -3 -1 1 2 1 -0 -0 1 -0 -0 1 3 3 2 3 3 2 2 1 1 1 1 -0 -1 -1 -2 -4 -5 -7 -9 -14
-7 -4 -4 -7 -5 -6 -6 -5 -3 -4 -2 1 1 3 -2 2 2 -1 -0 -4 -3 -1 0 0 1 2 2 2 2 2 2 1 1 1 0 0 -1 -2 -3 -4 -6 -9 -11 -15
-7 -3 -2 -4 -7 -8 -8 -7 -7 -2 -2 1 3 4 -1 1 1 -1 -2 -3 -2 -3 -2 -4 -1 1 1 1 2 2 1 1 1 1 0 0 -1 -2 -3 -5 -8 -9 -12 -17
-6 -3 -0 -3 -5 -6 -6 -6 -7 -4 -0 1 4 3 -3 -4 -0 -2 -2 -2 -2 -3 -5 -3 -2 0 0 1 1 1 1 1 1 1 0 -0 -1 -3 -4 -6 -8 -10 -14 -17
-8 -4 -2 0 -2 -5 -5 -7 -9 -8 -0 -1 2 2 -0 -2 -2 -3 -4 -4 -4 -4 -3 -3 -3 -2 -2 0 -0 0 1 1 1 1 0 -0 -1 -2 -4 -6 -9 -11 -13 -15
-5 -3 -4 -5 -6 -6 -6 -6 -8 -6 -6 -4 -2 -3 -3 -5 -5 -6 -6 -3 -3 -2 -3 -4 -5 -4 -3 1 1 1 2 2 1 0 0 0 -1 -2 -4 -7 -9 -11 -13 -14
0 1 3 2 -1 -1 1 -5 -6 -5 -6 -7 -6 -6 -8 -7 -5 2 2 1 0 -0 -1 -3 -3 -2 -2 -2 1 1 1 2 1 0 0 0 -1 -2 -4 -6 -9 -10 -11 -12
1 3 4 4 0 0 3 -0 -3 -4 -5 -5 -4 -5 -4 -2 -0 2 1 -1 1 1 2 1 -0 2 -1 0 1 2 2 2 1 1 0 -0 -1 -2 -4 -6 -8 -9 -10 -11
-0 -1 -0 2 -0 3 -3 -6 -5 -3 -4 -2 -0 1 1 -2 -2 -0 -1 -2 -2 -1 2 1 2 3 1 1 1 2 2 1 1 1 0 -0 -1 -2 -4 -5 -8 -9 -9 -11
-4 -2 0 2 1 -1 -2 -5 -5 -4 -2 -0 1 1 -0 -3 -3 -1 -0 -1 -1 1 2 2 -0 1 1 1 2 2 2 1 1 1 0 -0 -1 -1 -3 -5 -7 -8 -9 -12
-6 -4 -1 2 3 2 -3 -3 -3 -1 1 1 -1 -3 -4 -4 -1 -0 -2 -0 -0 1 2 2 1 0 1 2 1 1 1 1 1 1 0 -0 -1 -2 -2 -4 -5 -8 -10 -14
-1 2 3 4 4 3 0 -1 -0 2 3 1 -5 -6 -4 -2 -1 -3 -3 -1 0 1 1 1 -0 -0 -0 -0 0 1 1 -0 0 0 0 -1 -1 -2 -3 -4 -5 -6 -6 -10
-2 0 2 1 3 2 1 1 3 2 -2 -0 -4 -6 -4 -3 -3 -3 -2 -1 -1 -1 1 2 1 -0 -0 -0 -0 0 0 -0 -0 0 -0 -1 -2 -3 -3 -4 -5 -6 -7 -8
2 2 3 2 3 1 2 1 -1 -4 -2 -4 -8 -5 -6 -6 -5 -2 -0 -2 0 1 2 2 2 -0 -0 -0 -0 -0 -0 -0 -0 -0 -1 -1 -2 -2 -3 -3 -4 -6 -7 -9
-1 -3 1 1 -0 -2 -4 -4 -3 -3 -4 -4 -8 -8 -8 -7 -5 -3 -0 -1 1 2 2 2 1 -0 -0 -0 -1 -1 -0 -1 -1 -0 -1 -1 -2 -2 -3 -4 -5 -6 -8 -9
-4 -4 -2 -1 -3 -1 -2 -3 -3 -3 -3 -4 -5 -7 -7 -7 -6 -6 -4 -0 0 1 1 2 1 0 -0 -0 -0 -1 -1 -1 -1 -2 -1 -1 -2 -2 -3 -4 -6 -6 -9 -10
-6 -6 -2 -2 -3 -1 -2 -4 -4 -3 -4 -5 -5 -5 -6 -6 -6 -6 -2 -1 -2 -2 -1 1 1 1 0 0 -0 -1 -1 -1 -1 -2 -2 -1 -2 -3 -3 -4 -4 -6 -9 -9
Wind_Speed
15 4 9 11 11 11 4 7 8 8 12 9 5 5 7 10 14 15 20 22 26 37 40 39 35 30 27 26 24 23 21 21 21 21 17 17 17 14 10 8 7 8 8 8
5 12 16 14 15 2 3 5 8 8 8 8 10 15 9 8 13 25 26 27 26 33 43 40 38 34 31 30 26 24 22 22 19 16 13 14 14 12 9 8 8 7 7 7
8 12 12 13 4 6 5 6 5 8 7 8 11 14 9 10 17 25 34 34 30 44 48 46 43 39 34 31 30 25 21 18 17 16 16 19 14 10 9 8 7 7 6 5
8 10 0 4 3 6 4 7 5 7 7 3 4 14 6 12 16 13 15 18 27 46 49 48 45 40 36 31 26 22 20 18 21 21 21 20 14 14 11 9 4 5 5 5
7 8 3 3 5 6 6 5 5 4 6 9 7 5 2 13 15 4 7 18 32 41 48 48 44 39 33 28 25 21 19 22 20 24 22 19 16 15 14 10 6 6 4 4
9 20 5 7 7 3 4 5 7 5 4 11 9 8 15 8 6 1 3 19 28 36 41 42 40 37 30 24 23 24 22 23 23 21 19 18 16 21 17 12 10 7 6 5
6 6 7 13 11 3 1 4 3 4 2 9 3 8 10 5 8 6 7 12 18 28 35 37 36 32 26 25 25 26 25 26 25 24 20 22 20 19 17 15 12 8 7 7
5 5 4 8 4 2 4 5 4 6 2 9 11 6 6 3 23 28 19 18 20 23 27 29 28 26 23 28 30 30 27 26 26 25 26 24 24 22 16 13 12 12 10 7
3 4 9 13 8 3 4 5 3 3 7 3 4 8 5 12 11 18 19 18 12 10 13 23 25 22 23 28 31 29 26 28 27 25 27 27 25 23 20 15 18 17 13 10
2 6 7 10 12 7 4 4 2 2 5 14 6 5 2 5 7 8 10 19 21 10 7 11 17 18 23 26 29 24 21 28 27 24 26 26 26 25 23 21 21 20 16 13
4 5 3 4 4 10 7 8 4 6 7 11 13 6 2 9 7 7 6 12 11 11 10 5 9 13 15 22 26 25 22 29 27 25 26 25 26 26 23 22 22 20 16 13
4 3 5 10 10 15 15 15 13 6 8 3 2 5 8 7 6 5 3 8 9 4 10 11 14 21 22 28 30 30 26 31 32 28 27 27 26 24 23 22 21 19 17 16
2 3 4 10 5 10 10 6 9 8 2 2 3 5 13 14 7 16 18 22 22 19 19 19 21 28 27 31 31 31 31 35 34 31 28 29 28 26 25 23 21 20 18 17
3 2 5 6 8 10 13 21 19 12 6 11 10 15 12 18 13 8 14 21 25 28 29 29 28 32 32 35 35 35 38 39 36 33 32 30 29 26 25 24 22 21 20 19
7 8 6 14 17 18 20 23 23 22 15 13 12 15 16 9 6 10 14 16 18 19 19 11 15 30 30 39 39 38 39 41 38 36 34 30 29 25 25 24 22 22 21 21
5 5 5 17 18 19 24 24 17 18 18 18 14 12 5 9 12 16 17 19 19 22 16 16 16 19 30 37 42 42 42 42 41 38 35 31 30 28 27 25 24 24 23 23
2 3 0 5 5 9 11 10 11 15 17 17 14 10 6 6 8 9 13 16 16 18 16 13 16 24 25 30 37 40 41 41 40 38 36 33 30 29 28 25 26 26 25 25
11 11 9 10 9 13 16 12 13 14 20 3 4 5 6 4 6 3 8 15 18 23 21 15 5 9 16 20 27 30 36 38 38 37 35 32 30 30 29 28 27 28 27 25
13 13 6 9 12 15 25 14 14 12 13 2 4 2 4 10 6 5 11 16 17 19 28 12 16 10 12 13 16 20 25 33 33 34 34 34 33 32 31 30 29 28 28 26
14 15 11 9 6 8 1 2 2 3 7 7 8 4 2 1 1 4 17 19 17 23 14 10 7 13 11 15 12 14 16 27 33 34 34 33 33 33 31 29 28 27 25 25
6 2 8 10 6 5 10 6 3 3 2 24 2 4 0 3 5 11 15 17 19 20 17 6 8 12 9 10 13 14 14 22 27 30 33 32 33 33 31 28 28 28 27 22
13 6 4 4 4 6 11 6 1 6 4 22 18 8 3 9 8 11 12 15 20 23 16 10 11 11 10 9 11 15 16 16 21 27 32 32 32 35 32 28 30 28 22 24
4 2 3 4 3 5 12 14 29 15 19 16 11 7 8 9 10 13 18 22 19 19 11 11 12 13 14 12 10 16 16 17 23 27 30 32 34 35 31 29 27 27 27 29
3 10 4 3 2 6 19 22 21 9 16 23 9 10 11 13 13 13 16 23 20 14 14 14 12 13 16 14 11 9 16 19 23 27 32 31 32 30 27 25 26 28 30 31
8 6 5 6 10 15 11 16 19 22 15 25 23 15 8 10 13 11 15 15 15 18 8 12 14 14 16 14 13 12 12 21 25 25 27 28 29 28 27 27 25 27 31 31
13 11 4 5 10 10 14 22 22 22 15 15 15 20 8 11 17 12 12 11 9 13 9 7 9 9 11 13 14 12 9 20 26 27 29 27 28 27 27 27 29 30 31 29
Wind_Direction
274 272 253 239 243 257 292 333 318 306 315 335 299 278 293 311 316 294 277 257 217 188 176 168 165 174 179 187 192 195 202 201 204 201 202 197 197 203 207 198 187 181 182 193
264 249 253 260 258 276 309 304 305 305 315 356 331 308 304 302 283 276 274 268 231 170 163 163 168 176 183 182 192 195 205 210 208 204 189 195 195 201 199 192 181 173 174 179
246 258 271 231 266 309 301 290 289 282 318 350 328 296 294 278 275 279 263 251 246 174 162 166 169 175 179 183 190 198 205 206 183 183 188 185 196 202 207 193 180 168 173 177
247 250 121 347 276 262 276 283 338 334 349 277 46 297 239 266 267 287 311 269 224 171 167 163 168 172 180 188 193 202 202 194 180 206 197 205 219 212 202 181 177 178 180 181
264 330 305 254 237 276 264 342 316 316 285 297 185 257 313 307 294 294 12 71 152 156 160 166 173 179 184 186 189 199 195 181 190 201 209 217 190 197 201 203 226 195 178 182
263 270 277 239 246 228 3 330 312 280 254 269 241 216 287 288 267 311 56 94 140 154 167 173 177 179 183 187 189 190 192 189 195 209 201 196 200 192 197 223 226 197 182 187
289 272 295 283 244 143 200 332 304 319 195 246 260 277 247 5 335 218 173 103 133 165 166 174 175 179 183 189 187 184 189 189 199 201 189 197 209 215 220 220 220 222 209 200
278 320 292 9 19 194 195 154 182 247 208 286 304 266 291 36 46 41 83 74 81 160 170 175 181 183 180 184 186 186 189 196 203 205 198 197 213 215 207 213 219 224 215 214
326 245 327 323 327 336 270 239 228 274 283 254 244 284 347 43 19 49 44 54 68 91 141 178 180 181 183 191 194 196 203 206 208 213 207 204 209 213 207 211 218 222 223 221
307 304 233 303 353 311 219 211 282 284 258 269 248 275 246 51 54 46 38 36 42 77 102 118 179 185 200 202 202 205 211 209 212 217 215 209 203 206 209 210 213 215 217 217
356 219 264 289 221 280 316 300 274 262 234 251 264 274 349 71 75 66 51 51 48 32 54 54 152 186 219 219 212 216 216 212 218 218 210 207 203 207 211 213 212 214 213 207
293 270 272 259 287 297 281 272 273 259 283 265 213 231 123 127 131 137 221 210 219 206 270 252 236 209 219 225 221 223 217 211 216 217 218 214 210 213 214 211 208 210 210 206
1 299 332 310 308 246 248 332 307 295 153 280 333 275 319 310 193 226 226 230 243 220 232 228 225 217 221 220 226 231 221 213 213 214 219 217 214 213 213 210 210 209 205 200
87 208 188 238 263 311 298 302 290 289 273 264 249 260 299 292 284 268 272 271 258 251 245 248 235 235 232 228 233 227 218 215 213 212 215 218 217 216 213 210 207 207 203 201
174 241 230 256 267 278 271 270 279 283 278 272 263 262 261 251 272 276 343 6 352 286 259 255 286 258 236 224 222 221 217 212 215 213 215 220 219 218 215 211 206 205 202 200
20 295 344 278 280 282 283 272 274 289 291 289 290 285 302 289 29 46 31 13 357 344 336 320 288 253 236 229 219 218 216 214 213 215 217 218 216 215 214 212 207 205 202 200
208 204 338 260 274 314 285 274 273 278 274 272 278 300 2 34 57 47 18 1 353 348 354 326 322 301 257 238 218 215 216 213 214 215 214 217 216 214 214 212 207 205 205 205
257 260 252 269 290 265 267 254 261 272 272 319 322 354 345 29 16 53 357 347 343 333 324 323 20 324 269 227 226 221 221 220 216 216 219 220 217 215 214 213 210 208 209 211
233 249 254 252 256 281 287 281 275 270 286 5 157 311 21 305 334 355 308 327 330 339 330 298 336 305 249 240 226 207 210 218 218 218 218 218 214 215 215 215 213 210 211 214
249 236 243 244 236 243 42 68 5 122 285 175 172 186 236 257 1 249 325 316 311 327 321 302 260 257 242 225 231 223 216 214 214 212 210 211 212 215 214 215 211 210 212 219
291 237 226 255 249 256 243 284 1 110 278 300 198 273 316 170 217 295 321 324 313 311 310 314 252 265 257 259 258 246 235 221 215 216 214 214 213 209 212 213 208 204 212 212
265 261 222 212 205 259 26 20 160 193 355 258 273 278 287 305 279 308 314 327 323 310 298 271 281 263 263 259 263 245 237 232 215 216 212 208 203 202 207 207 208 211 194 209
323 320 280 7 263 289 307 291 271 261 245 276 14 34 29 5 2 343 339 334 316 314 294 283 257 254 256 263 263 241 233 221 215 212 208 209 208 211 216 216 218 197 199 210
240 286 268 232 298 296 300 308 314 15 359 346 325 315 322 325 316 331 333 342 333 325 302 276 224 241 246 255 275 257 225 221 218 214 213 216 214 214 218 216 208 199 202 209
254 298 255 260 279 284 288 300 303 311 328 299 313 314 308 319 307 309 312 320 326 319 308 216 221 237 243 259 276 272 234 214 215 221 223 221 217 216 217 213 207 205 212 218
244 248 239 252 277 280 298 308 312 297 292 310 282 296 314 314 301 297 314 314 357 357 0 290 241 244 250 264 276 272 254 211 210 217 220 223 221 216 213 203 212 210 221 223
Height
1487 1492 1492 1486 1479 1478 1475 1476 1479 1469 1457 1460 1461 1460 1456 1453 1452 1451 1450 1450 1451 1454 1455 1459 1463 1467 1472 1477 1483 1489 1496 1500 1502 1504 1505 1505 1505 1506 1508 1509 1509 1509 1509 1509
1488 1489 1475 1473 1469 1471 1473 1477 1481 1471 1462 1465 1465 1459 1455 1452 1449 1446 1442 1443 1446 1450 1453 1455 1457 1462 1468 1473 1479 1485 1491 1495 1499 1502 1503 1503 1504 1505 1507 1507 1508 1508 1508 1508
1485 1474 1467 1467 1469 1472 1473 1477 1477 1478 1469 1467 1467 1456 1457 1450 1444 1438 1433 1432 1435 1438 1443 1448 1452 1456 1462 1469 1475 1481 1486 1492 1497 1499 1501 1502 1503 1504 1505 1505 1506 1506 1506 1507
1473 1465 1467 1469 1470 1469 1479 1469 1470 1473 1480 1494 1472 1475 1461 1448 1439 1433 1427 1420 1423 1428 1434 1441 1447 1454 1458 1464 1472 1478 1483 1489 1493 1496 1498 1500 1501 1502 1503 1505 1505 1505 1505 1506
1479 1471 1468 1472 1471 1466 1472 1465 1469 1472 1479 1480 1480 1490 1450 1444 1441 1436 1427 1418 1417 1423 1429 1438 1445 1451 1458 1464 1470 1476 1482 1487 1491 1495 1498 1499 1500 1500 1500 1502 1504 1503 1503 1504
1472 1466 1468 1466 1462 1463 1463 1467 1471 1472 1481 1488 1474 1482 1454 1456 1438 1435 1431 1427 1428 1431 1435 1440 1446 1451 1458 1463 1469 1475 1479 1485 1489 1491 1495 1496 1496 1496 1499 1501 1502 1501 1501 1503
1472 1468 1463 1461 1462 1460 1464 1479 1500 1499 1497 1487 1458 1466 1460 1448 1443 1435 1432 1433 1436 1436 1439 1441 1445 1451 1456 1460 1467 1472 1476 1481 1486 1488 1491 1493 1494 1496 1496 1497 1499 1499 1500 1501
1479 1484 1463 1462 1463 1465 1467 1474 1497 1495 1495 1484 1458 1465 1456 1444 1440 1437 1438 1438 1440 1443 1445 1446 1448 1450 1455 1459 1464 1470 1474 1478 1480 1485 1487 1489 1490 1490 1491 1492 1495 1497 1497 1499
1478 1471 1459 1461 1463 1463 1468 1474 1467 1478 1473 1484 1468 1455 1446 1445 1446 1446 1449 1448 1446 1449 1452 1452 1454 1455 1456 1460 1464 1468 1472 1475 1477 1480 1483 1486 1488 1489 1488 1488 1491 1494 1495 1496
1470 1479 1463 1457 1461 1460 1462 1461 1476 1477 1482 1475 1463 1458 1461 1454 1453 1453 1453 1455 1453 1452 1453 1455 1459 1461 1462 1460 1461 1468 1469 1472 1475 1478 1481 1482 1484 1484 1485 1486 1488 1491 1492 1493
1469 1473 1469 1463 1468 1466 1465 1464 1464 1464 1465 1472 1472 1475 1452 1454 1455 1458 1458 1457 1457 1459 1459 1461 1461 1463 1465 1466 1463 1465 1466 1468 1470 1473 1476 1480 1479 1481 1483 1484 1486 1487 1489 1490
1474 1475 1477 1469 1462 1461 1463 1464 1463 1472 1470 1472 1472 1472 1452 1454 1455 1454 1453 1452 1451 1450 1457 1456 1457 1457 1459 1460 1458 1459 1461 1461 1462 1466 1472 1475 1476 1478 1481 1482 1483 1485 1486 1488
1475 1479 1484 1469 1465 1459 1462 1459 1458 1458 1461 1471 1485 1477 1447 1447 1450 1448 1446 1443 1444 1445 1444 1445 1445 1447 1447 1449 1454 1458 1455 1453 1456 1460 1465 1470 1471 1471 1476 1478 1481 1482 1483 1485
1476 1479 1485 1491 1476 1473 1473 1463 1458 1460 1462 1459 1465 1465 1452 1447 1443 1440 1439 1438 1437 1436 1437 1438 1439 1440 1440 1441 1444 1441 1450 1450 1450 1449 1458 1463 1467 1470 1473 1475 1475 1479 1481 1482
1473 1478 1479 1474 1472 1471 1468 1462 1456 1455 1450 1453 1450 1445 1443 1441 1438 1435 1434 1434 1434 1434 1434 1435 1432 1431 1430 1436 1436 1439 1443 1445 1445 1446 1451 1456 1463 1466 1470 1473 1473 1476 1478 1480
1472 1475 1477 1477 1472 1471 1468 1447 1450 1448 1446 1442 1439 1437 1436 1433 1433 1435 1435 1433 1433 1432 1431 1430 1429 1426 1425 1425 1430 1432 1435 1439 1441 1442 1446 1452 1458 1462 1466 1468 1470 1473 1475 1477
1475 1481 1480 1477 1471 1467 1476 1456 1449 1445 1442 1442 1442 1436 1434 1435 1435 1435 1434 1433 1432 1431 1430 1424 1423 1424 1420 1421 1427 1428 1431 1435 1437 1439 1443 1448 1453 1457 1461 1465 1467 1469 1472 1475
1470 1470 1471 1472 1468 1472 1438 1442 1439 1439 1433 1436 1435 1436 1437 1437 1437 1434 1433 1433 1430 1427 1427 1426 1420 1421 1420 1419 1420 1425 1428 1431 1434 1436 1440 1444 1449 1453 1457 1461 1464 1467 1469 1472
1460 1462 1466 1470 1467 1452 1432 1438 1437 1436 1430 1433 1434 1434 1430 1434 1432 1431 1433 1429 1427 1423 1419 1418 1415 1417 1418 1417 1416 1420 1424 1426 1430 1432 1435 1439 1444 1448 1453 1457 1460 1463 1466 1469
1450 1452 1458 1464 1459 1450 1431 1430 1429 1430 1439 1428 1428 1430 1429 1430 1439 1433 1427 1425 1423 1422 1416 1413 1414 1417 1416 1415 1414 1416 1418 1420 1424 1428 1432 1436 1439 1442 1447 1452 1456 1460 1464 1467
1449 1451 1455 1452 1448 1441 1431 1432 1429 1442 1441 1433 1426 1427 1426 1428 1427 1424 1423 1421 1420 1418 1417 1415 1415 1415 1415 1412 1412 1413 1415 1416 1421 1426 1430 1433 1436 1439 1443 1447 1452 1456 1460 1463
1448 1451 1450 1446 1446 1449 1433 1435 1435 1435 1434 1431 1426 1422 1422 1423 1421 1420 1419 1418 1417 1415 1413 1412 1411 1411 1411 1410 1410 1411 1412 1415 1420 1423 1426 1429 1433 1436 1440 1444 1447 1452 1456 1461
1449 1446 1446 1439 1441 1431 1436 1436 1429 1424 1424 1424 1421 1422 1420 1419 1419 1417 1415 1414 1411 1411 1409 1407 1406 1407 1407 1408 1408 1409 1411 1413 1417 1420 1424 1426 1429 1433 1437 1440 1444 1448 1453 1458
1447 1445 1445 1442 1432 1430 1426 1425 1424 1422 1420 1421 1419 1417 1416 1415 1415 1414 1413 1410 1408 1407 1405 1404 1405 1404 1404 1405 1406 1406 1408 1411 1414 1417 1420 1423 1427 1431 1435 1438 1441 1445 1450 1455
1446 1441 1435 1432 1427 1423 1422 1421 1421 1417 1417 1419 1415 1415 1411 1411 1412 1411 1410 1409 1407 1403 1401 1400 1402 1402 1402 1403 1403 1403 1404 1407 1410 1414 1418 1421 1425 1428 1432 1435 1439 1442 1448 1452
1437 1431 1433 1427 1421 1419 1417 1416 1414 1413 1412 1411 1409 1410 1408 1408 1408 1407 1407 1406 1405 1402 1400 1400 1400 1400 1401 1400 1400 1401 1402 1404 1407 1411 1414 1417 1420 1424 1428 1432 1435 1440 1445 1448